TimeEEST,TemperatureF,Dew PointF,Humidity,Sea Level PressureIn,VisibilityMPH,Wind Direction,Wind SpeedMPH,Gust SpeedMPH,PrecipitationIn,Events,Conditions,WindDirDegrees,DateUTC
12:20 AM,73.4,59.0,61,29.74,6.2,SSW,11.5,-,N/A,,Mostly Cloudy,200,2011-10-08 21:20:00
12:50 AM,73.4,59.0,61,29.74,6.2,SSW,15.0,-,N/A,,Mostly Cloudy,200,2011-10-08 21:50:00
1:20 AM,71.6,59.0,64,29.71,6.2,SW,10.4,-,N/A,,Mostly Cloudy,220,2011-10-08 22:20:00
1:50 AM,71.6,60.8,69,29.71,6.2,SW,8.1,-,N/A,,Mostly Cloudy,220,2011-10-08 22:50:00
2:20 AM,71.6,60.8,69,29.71,6.2,South,9.2,-,N/A,,Mostly Cloudy,190,2011-10-08 23:20:00
2:50 AM,71.6,60.8,69,29.71,6.2,SSE,12.7,-,N/A,,Mostly Cloudy,160,2011-10-08 23:50:00
3:00 AM,72,60,57,29.71,6,SSE,12.7,,,,Partly Cloudy,160,2011-10-09 00:00:00
3:20 AM,71.6,60.8,69,29.68,6.2,SE,8.1,-,N/A,,Mostly Cloudy,140,2011-10-09 00:20:00
3:50 AM,71.6,60.8,69,29.68,6.2,South,8.1,-,N/A,,Mostly Cloudy,170,2011-10-09 00:50:00
4:20 AM,69.8,60.8,73,29.65,6.2,SE,6.9,-,N/A,Rain,Light Rain Showers,140,2011-10-09 01:20:00
4:50 AM,69.8,62.6,78,29.65,6.2,ESE,4.6,-,N/A,,Mostly Cloudy,120,2011-10-09 01:50:00
5:20 AM,68.0,62.6,83,29.62,6.2,East,5.8,-,N/A,,Mostly Cloudy,100,2011-10-09 02:20:00
5:50 AM,68.0,59.0,73,29.65,3.1,SE,11.5,-,N/A,Rain,Light Rain Showers,130,2011-10-09 02:50:00
6:20 AM,68.0,59.0,73,29.65,2.5,SE,10.4,-,N/A,Rain,Rain Showers,130,2011-10-09 03:20:00
6:50 AM,66.2,60.8,83,29.62,3.7,SE,10.4,-,N/A,Rain,Light Rain Showers,130,2011-10-09 03:50:00
7:20 AM,66.2,62.6,88,29.62,5.0,SE,5.8,-,N/A,,Mostly Cloudy,130,2011-10-09 04:20:00
7:50 AM,66.2,62.6,88,29.59,4.3,ESE,8.1,-,N/A,Rain,Light Rain Showers,120,2011-10-09 04:50:00
8:20 AM,66.2,62.6,88,29.59,4.3,SE,11.5,-,N/A,Rain,Light Rain Showers,130,2011-10-09 05:20:00
8:50 AM,68.0,62.6,83,29.59,3.1,SSE,6.9,-,N/A,Rain,Rain Showers,150,2011-10-09 05:50:00
9:00 AM,67,62,81,29.61,3,SSE,6.9,,,Rain,Heavy Rain Showers,150,2011-10-09 06:00:00
9:20 AM,66.2,62.6,88,29.62,3.7,South,9.2,-,N/A,Rain,Light Rain Showers,180,2011-10-09 06:20:00
9:50 AM,66.2,64.4,94,29.65,3.7,South,17.3,-,N/A,Rain,Light Rain Showers,170,2011-10-09 06:50:00
10:20 AM,64.4,64.4,100,29.65,1.9,South,20.7,-,N/A,Rain,Rain Showers,190,2011-10-09 07:20:00
10:50 AM,64.4,64.4,100,29.62,3.7,South,15.0,-,N/A,Rain,Light Rain Showers,180,2011-10-09 07:50:00
11:20 AM,64.4,64.4,100,29.65,3.7,South,17.3,-,N/A,Rain,Light Rain Showers,180,2011-10-09 08:20:00
11:50 AM,66.2,66.2,100,29.65,6.2,South,19.6,-,N/A,Rain,Light Rain Showers,180,2011-10-09 08:50:00
12:20 PM,66.2,66.2,100,29.65,6.2,South,21.9,-,N/A,,Mostly Cloudy,180,2011-10-09 09:20:00
12:50 PM,68.0,66.2,94,29.65,6.2,South,17.3,-,N/A,,Mostly Cloudy,190,2011-10-09 09:50:00
1:20 PM,68.0,66.2,94,29.65,6.2,South,18.4,-,N/A,,Mostly Cloudy,180,2011-10-09 10:20:00
1:50 PM,69.8,66.2,88,29.65,6.2,SSW,16.1,-,N/A,Rain,Light Rain Showers,200,2011-10-09 10:50:00
2:20 PM,68.0,66.2,94,29.65,6.2,SSW,12.7,-,N/A,,Mostly Cloudy,200,2011-10-09 11:20:00
2:50 PM,69.8,66.2,88,29.65,6.2,SW,11.5,-,N/A,Rain,Light Rain Showers,220,2011-10-09 11:50:00
3:00 PM,70,66,85,29.67,6,SW,11.5,,,Rain,Light Rain Showers,220,2011-10-09 12:00:00
3:20 PM,69.8,66.2,88,29.68,6.2,SW,8.1,-,N/A,Rain,Light Rain Showers,230,2011-10-09 12:20:00
3:50 PM,68.0,66.2,94,29.68,6.2,SW,8.1,-,N/A,Rain,Light Rain Showers,220,2011-10-09 12:50:00
4:20 PM,68.0,66.2,94,29.68,6.2,SSW,13.8,-,N/A,Rain,Light Rain Showers,200,2011-10-09 13:20:00
4:50 PM,64.4,62.6,94,29.68,3.7,West,8.1,-,N/A,Rain,Light Rain Showers,260,2011-10-09 13:50:00
5:20 PM,64.4,62.6,94,29.68,3.7,West,4.6,-,N/A,Rain,Light Rain Showers,280,2011-10-09 14:20:00
5:50 PM,64.4,62.6,94,29.68,6.2,NNW,4.6,-,N/A,Rain,Light Rain Showers,340,2011-10-09 14:50:00
6:20 PM,64.4,62.6,94,29.68,6.2,NNW,9.2,-,N/A,,Mostly Cloudy,340,2011-10-09 15:20:00
6:50 PM,64.4,62.6,94,29.68,6.2,NNW,10.4,-,N/A,,Mostly Cloudy,340,2011-10-09 15:50:00
7:20 PM,64.4,62.6,94,29.71,6.2,North,9.2,-,N/A,Rain,Light Rain Showers,360,2011-10-09 16:20:00
7:50 PM,64.4,62.6,94,29.71,6.2,NE,6.9,-,N/A,Rain,Light Rain Showers,40,2011-10-09 16:50:00
8:20 PM,66.2,62.6,88,29.68,6.2,NNE,8.1,-,N/A,Rain,Light Rain Showers,20,2011-10-09 17:20:00
8:50 PM,64.4,62.6,94,29.71,6.2,North,10.4,-,N/A,,Mostly Cloudy,350,2011-10-09 17:50:00
9:00 PM,64,62,92,29.73,6,North,10.4,,,Rain,Light Rain Showers,350,2011-10-09 18:00:00
9:20 PM,62.6,62.6,100,29.71,6.2,North,15.0,-,N/A,,Mostly Cloudy,350,2011-10-09 18:20:00
9:50 PM,60.8,59.0,94,29.74,6.2,North,18.4,-,N/A,,Mostly Cloudy,360,2011-10-09 18:50:00
10:20 PM,60.8,59.0,94,29.74,6.2,North,17.3,-,N/A,,Mostly Cloudy,350,2011-10-09 19:20:00
10:50 PM,60.8,59.0,94,29.74,6.2,North,18.4,-,N/A,,Mostly Cloudy,350,2011-10-09 19:50:00
11:20 PM,60.8,59.0,94,29.74,5.0,North,13.8,-,N/A,Rain,Light Rain Showers,360,2011-10-09 20:20:00
11:50 PM,60.8,59.0,94,29.74,5.0,North,18.4,-,N/A,Rain,Light Rain Showers,350,2011-10-09 20:50:00